TimeCDT,TemperatureF,Dew PointF,Humidity,Sea Level PressureIn,VisibilityMPH,Wind Direction,Wind SpeedMPH,Gust SpeedMPH,PrecipitationIn,Events,Conditions,WindDirDegrees,DateUTC
12:52 AM,46.0,41.0,83,30.06,10.0,SE,3.5,-,N/A,,Clear,140,2011-10-23 05:52:00
1:52 AM,46.0,41.0,83,30.07,10.0,Calm,Calm,-,N/A,,Clear,0,2011-10-23 06:52:00
2:52 AM,43.0,39.9,89,30.07,10.0,ESE,3.5,-,N/A,,Clear,120,2011-10-23 07:52:00
3:52 AM,43.0,39.9,89,30.06,10.0,Calm,Calm,-,N/A,,Clear,0,2011-10-23 08:52:00
4:52 AM,42.1,39.0,89,30.07,10.0,Calm,Calm,-,N/A,,Clear,0,2011-10-23 09:52:00
5:52 AM,42.1,39.9,92,30.08,10.0,Calm,Calm,-,N/A,,Clear,0,2011-10-23 10:52:00
6:52 AM,42.1,39.9,92,30.09,10.0,ESE,3.5,-,N/A,,Clear,120,2011-10-23 11:52:00
7:52 AM,44.1,41.0,89,30.11,10.0,SE,3.5,-,N/A,,Clear,140,2011-10-23 12:52:00
8:52 AM,48.0,43.0,83,30.12,10.0,SE,3.5,-,N/A,,Clear,140,2011-10-23 13:52:00
9:52 AM,51.1,44.1,77,30.12,10.0,Calm,Calm,-,N/A,,Clear,0,2011-10-23 14:52:00
11:52 AM,62.1,44.1,52,30.09,10.0,South,5.8,-,N/A,,Clear,190,2011-10-23 16:52:00
12:52 PM,63.0,45.0,52,30.08,10.0,Variable,5.8,-,N/A,,Clear,0,2011-10-23 17:52:00
1:52 PM,64.9,44.1,47,30.07,10.0,SW,8.1,-,N/A,,Scattered Clouds,220,2011-10-23 18:52:00
2:52 PM,66.0,44.1,45,30.06,10.0,SW,5.8,-,N/A,,Clear,220,2011-10-23 19:52:00
3:52 PM,66.9,44.1,44,30.04,10.0,Calm,Calm,-,N/A,,Clear,0,2011-10-23 20:52:00
4:52 PM,66.9,45.0,45,30.04,10.0,Calm,Calm,-,N/A,,Clear,0,2011-10-23 21:52:00
5:52 PM,64.0,46.0,52,30.05,10.0,Calm,Calm,-,N/A,,Partly Cloudy,0,2011-10-23 22:52:00
6:52 PM,60.1,46.9,62,30.06,10.0,SE,3.5,-,N/A,,Clear,130,2011-10-23 23:52:00
7:52 PM,57.9,48.0,70,30.07,10.0,Calm,Calm,-,N/A,,Clear,0,2011-10-24 00:52:00
8:52 PM,54.0,48.9,83,30.08,10.0,Calm,Calm,-,N/A,,Clear,0,2011-10-24 01:52:00
9:52 PM,53.1,48.0,83,30.09,10.0,West,3.5,-,N/A,,Clear,280,2011-10-24 02:52:00
10:52 PM,48.9,46.9,93,30.10,10.0,Calm,Calm,-,N/A,,Clear,0,2011-10-24 03:52:00